TimeAEST,TemperatureF,Dew PointF,Humidity,Sea Level PressureIn,VisibilityMPH,Wind Direction,Wind SpeedMPH,Gust SpeedMPH,PrecipitationIn,Events,Conditions,WindDirDegrees,DateUTC
12:00 AM,70,61,65,29.91,,South,8.1,,,,Overcast,180,2013-06-16 14:00:00
12:00 AM,69.8,60.8,73,29.89,6.2,South,8.1,-,N/A,,Mostly Cloudy,170,2013-06-16 14:00:00
12:30 AM,71.6,60.8,69,29.89,6.2,South,10.4,-,N/A,,Mostly Cloudy,190,2013-06-16 14:30:00
1:00 AM,71,60,61,29.90,,South,8.1,,,,,190,2013-06-16 15:00:00
1:00 AM,71.6,60.8,69,29.89,6.2,South,8.1,-,N/A,,Mostly Cloudy,190,2013-06-16 15:00:00
1:30 AM,71.6,60.8,69,29.89,6.2,South,8.1,-,N/A,,Mostly Cloudy,190,2013-06-16 15:30:00
2:00 AM,69.8,62.6,78,29.89,6.2,SSE,5.8,-,N/A,,Mostly Cloudy,150,2013-06-16 16:00:00
2:30 AM,69.8,62.6,78,29.86,6.2,SE,8.1,-,N/A,,Mostly Cloudy,140,2013-06-16 16:30:00
3:00 AM,69,63,76,29.87,,SSE,9.2,,,,Overcast,150,2013-06-16 17:00:00
3:00 AM,69.8,62.6,78,29.86,6.2,SSE,9.2,-,N/A,,Mostly Cloudy,150,2013-06-16 17:00:00
3:30 AM,69.8,62.6,78,29.86,6.2,SSE,8.1,-,N/A,,Mostly Cloudy,150,2013-06-16 17:30:00
4:00 AM,70,62,67,29.87,,South,6.9,,,,,170,2013-06-16 18:00:00
4:00 AM,69.8,60.8,73,29.86,6.2,South,6.9,-,N/A,,Mostly Cloudy,170,2013-06-16 18:00:00
4:30 AM,69.8,62.6,78,29.86,6.2,NE,4.6,-,N/A,,Mostly Cloudy,50,2013-06-16 18:30:00
5:00 AM,69.8,62.6,78,29.86,6.2,SE,8.1,-,N/A,,Mostly Cloudy,140,2013-06-16 19:00:00
5:30 AM,69.8,62.6,78,29.86,6.2,SSE,9.2,-,N/A,,Mostly Cloudy,150,2013-06-16 19:30:00
6:00 AM,69,62,74,29.87,16,SSE,10.4,,,,Partly Cloudy,150,2013-06-16 20:00:00
6:00 AM,69.8,62.6,78,29.86,6.2,SSE,10.4,-,N/A,,Mostly Cloudy,150,2013-06-16 20:00:00
6:30 AM,69.8,62.6,78,29.86,6.2,SSE,9.2,-,N/A,,Mostly Cloudy,150,2013-06-16 20:30:00
7:00 AM,69,63,74,29.89,,SSE,8.1,,,,,150,2013-06-16 21:00:00
7:00 AM,69.8,62.6,78,29.86,6.2,SSE,8.1,-,N/A,,Mostly Cloudy,150,2013-06-16 21:00:00
7:30 AM,69.8,62.6,78,29.89,6.2,SSE,8.1,-,N/A,,Mostly Cloudy,160,2013-06-16 21:30:00
8:00 AM,71.6,62.6,73,29.89,6.2,SW,3.5,-,N/A,,Mostly Cloudy,230,2013-06-16 22:00:00
8:30 AM,71.6,62.6,73,29.89,6.2,SSE,10.4,-,N/A,,Mostly Cloudy,150,2013-06-16 22:30:00
9:00 AM,73,63,63,29.90,19,SSE,10.4,,,,Partly Cloudy,160,2013-06-16 23:00:00
9:00 AM,73.4,62.6,69,29.89,6.2,SSE,10.4,-,N/A,,Mostly Cloudy,160,2013-06-16 23:00:00
9:30 AM,75.2,64.4,69,29.89,6.2,SSE,10.4,-,N/A,,Scattered Clouds,160,2013-06-16 23:30:00
10:00 AM,76,62,52,29.90,,SSE,13.8,,,,,160,2013-06-17 00:00:00
10:00 AM,77.0,62.6,61,29.89,6.2,SSE,13.8,-,N/A,,Partly Cloudy,160,2013-06-17 00:00:00
10:30 AM,77.0,62.6,61,29.89,6.2,SSE,11.5,-,N/A,,Partly Cloudy,150,2013-06-17 00:30:00
11:00 AM,77.0,62.6,61,29.89,6.2,South,9.2,-,N/A,,Partly Cloudy,170,2013-06-17 01:00:00
11:30 AM,78.8,62.6,57,29.86,6.2,SE,8.1,-,N/A,,Partly Cloudy,130,2013-06-17 01:30:00
12:00 PM,77,62,50,29.88,19,East,4.6,,,,Partly Cloudy,100,2013-06-17 02:00:00
12:00 PM,77.0,62.6,61,29.86,6.2,East,4.6,-,N/A,,Partly Cloudy,90,2013-06-17 02:00:00
12:30 PM,80.6,64.4,58,29.86,6.2,NNE,11.5,-,N/A,,Partly Cloudy,30,2013-06-17 02:30:00
1:00 PM,80,63,47,29.86,,NE,10.4,,,,,40,2013-06-17 03:00:00
1:00 PM,80.6,62.6,54,29.86,6.2,NE,10.4,-,N/A,,Partly Cloudy,40,2013-06-17 03:00:00
1:30 PM,80.6,62.6,54,29.83,6.2,ENE,10.4,-,N/A,,Partly Cloudy,60,2013-06-17 03:30:00
2:00 PM,80.6,62.6,54,29.83,6.2,ENE,9.2,-,N/A,,Partly Cloudy,60,2013-06-17 04:00:00
2:30 PM,80.6,62.6,54,29.80,6.2,ENE,9.2,-,N/A,,Partly Cloudy,70,2013-06-17 04:30:00
3:00 PM,79,63,49,29.82,25,ENE,9.2,,,,Partly Cloudy,60,2013-06-17 05:00:00
3:00 PM,78.8,62.6,57,29.80,6.2,ENE,9.2,-,N/A,,Partly Cloudy,60,2013-06-17 05:00:00
3:30 PM,78.8,62.6,57,29.80,6.2,NE,8.1,-,N/A,,Partly Cloudy,50,2013-06-17 05:30:00
4:00 PM,78,62,49,29.83,,NE,5.8,,,,,50,2013-06-17 06:00:00
4:00 PM,78.8,62.6,57,29.80,6.2,NE,5.8,-,N/A,,Partly Cloudy,50,2013-06-17 06:00:00
4:30 PM,77.0,64.4,65,29.83,6.2,NE,8.1,-,N/A,,Partly Cloudy,50,2013-06-17 06:30:00
5:00 PM,77.0,64.4,65,29.83,6.2,ENE,6.9,-,N/A,,Mostly Cloudy,70,2013-06-17 07:00:00
5:30 PM,75.2,64.4,69,29.83,6.2,ENE,5.8,-,N/A,,Mostly Cloudy,70,2013-06-17 07:30:00
6:00 PM,72,65,73,29.85,,Calm,Calm,,,,,,2013-06-17 08:00:00
6:00 PM,71.6,64.4,78,29.83,6.2,Calm,Calm,-,N/A,,Mostly Cloudy,0,2013-06-17 08:00:00
6:30 PM,73.4,64.4,73,29.86,6.2,South,6.9,-,N/A,,Mostly Cloudy,190,2013-06-17 08:30:00
7:00 PM,72,64,69,29.87,,South,9.2,,,,,190,2013-06-17 09:00:00
7:00 PM,71.6,64.4,78,29.86,6.2,South,9.2,-,N/A,,Mostly Cloudy,190,2013-06-17 09:00:00
7:30 PM,71.6,64.4,78,29.86,6.2,South,9.2,-,N/A,,Mostly Cloudy,170,2013-06-17 09:30:00
8:00 PM,68.0,64.4,88,29.89,6.2,NNW,5.8,-,N/A,,Mostly Cloudy,340,2013-06-17 10:00:00
8:30 PM,68.0,64.4,88,29.89,6.2,NW,2.3,-,N/A,,Partly Cloudy,310,2013-06-17 10:30:00
9:00 PM,67,65,91,29.90,,NW,1.2,,,,,320,2013-06-17 11:00:00
9:00 PM,66.2,64.4,94,29.89,6.2,NW,1.2,-,N/A,,Partly Cloudy,320,2013-06-17 11:00:00
9:30 PM,66.2,64.4,94,29.89,6.2,West,3.5,-,N/A,,Scattered Clouds,270,2013-06-17 11:30:00
10:00 PM,67,65,90,29.91,,Calm,Calm,,,,,,2013-06-17 12:00:00
10:00 PM,66.2,64.4,94,29.89,6.2,Calm,Calm,-,N/A,,Partly Cloudy,0,2013-06-17 12:00:00
10:30 PM,68.0,64.4,88,29.89,6.2,WNW,4.6,-,N/A,,Partly Cloudy,290,2013-06-17 12:30:00
11:00 PM,68.0,64.4,88,29.89,6.2,West,5.8,-,N/A,,Partly Cloudy,280,2013-06-17 13:00:00
11:30 PM,68.0,64.4,88,29.89,6.2,West,5.8,-,N/A,,Partly Cloudy,280,2013-06-17 13:30:00